Regional Weather Roundup
Issued by NWS

Home | Current Version | Previous Version | Text Only | Print | Product List | Glossary On
Versions: 1 2 3 4 5 6 7 8 9 10 11 12 13 14 15 16 17 18 19 20 21 22 23 24 25 26 27 28 29 30 31 32 33 34 35 36 37 38 39 40 41 42 43 44 45 46 47 48 49 50
000
ASUS43 KTOP 041159
RWRKS

WEATHER ROUNDUP FOR KANSAS
NATIONAL WEATHER SERVICE GOODLAND KS
700 AM CDT MON MAY 04 2015

NOTE:  "FAIR" INDICATES FEW OR NO CLOUDS BELOW 12,000 FEET WITH NO
SIGNIFICANT WEATHER AND/OR OBSTRUCTIONS TO VISIBILITY.

KSZ001>006-013>018-027>032-041>047-041300-
NORTHWEST KANSAS

CITY           SKY/WX    TMP DP  RH WIND       PRES   REMARKS
GOODLAND       CLOUDY    51  45  79 NE7       30.06R
6HR MIN TEMP:  50; 6HR MAX TEMP:  62; 6HR PCP: TRACE;

HAYS           CLOUDY    59  45  58 NW5       29.98F
HILL CITY      CLOUDY    57  48  72 CALM      30.02R
6HR MIN TEMP:  57; 6HR MAX TEMP:  66; 6HR PCP:  0.01;

RUSSELL        CLOUDY    59  48  67 NW7       29.94S
6HR MIN TEMP:  58; 6HR MAX TEMP:  73; 6HR PCP:  0.01;

$$

KSZ061>065-074>080-084>089-041300-
SOUTHWEST KANSAS

CITY           SKY/WX    TMP DP  RH WIND       PRES   REMARKS
DODGE CITY     LGT RAIN  60  55  83 N10       29.95R
6HR MIN TEMP:  59; 6HR MAX TEMP:  68; 6HR PCP:  0.02;

ELKHART          N/A     57  50  78 W6          N/A
GARDEN CITY    CLOUDY    57  54  89 NE8       29.96R
6HR MIN TEMP:  57; 6HR MAX TEMP:  60;

GREAT BEND     CLOUDY    61  52  72 NE15      29.94F
LIBERAL        CLOUDY    61  54  77 S8        29.97R
$$

KSZ066>073-081>083-090>101-041300-
SOUTHEAST KANSAS

CITY           SKY/WX    TMP DP  RH WIND       PRES   REMARKS
CHANUTE        MOCLDY    62  56  80 S9        30.01R
6HR MIN TEMP:  58; 6HR MAX TEMP:  64;

COFFEYVILLE    MOCLDY    62  56  80 S7        30.03R
6HR MIN TEMP:  61; 6HR MAX TEMP:  64;

HUTCHINSON     MOCLDY    60  56  86 SE6       29.95R
6HR MIN TEMP:  58; 6HR MAX TEMP:  69;

MEDICINE LODGE   N/A     62  58  86 SE6       29.97R
NEWTON         MOCLDY    59  52  77 S8        30.00R
PARSONS        MOCLDY    62  57  83 S3        30.04R
6HR MIN TEMP:  60; 6HR MAX TEMP:  63;

WICHITA INTL   MOCLDY    58  54  86 S6        29.98R
6HR MIN TEMP:  57; 6HR MAX TEMP:  67;

WICHITA JABRA  MOCLDY    62  55  77 S13       29.98R
6HR MIN TEMP:  60; 6HR MAX TEMP:  68;

WINFIELD       PTCLDY    60  56  86 SE6       30.01R
6HR MIN TEMP:  59; 6HR MAX TEMP:  65;

$$

KSZ007>012-019>026-033>040-048>060-102>105-041300-
NORTHEAST KANSAS

CITY           SKY/WX    TMP DP  RH WIND       PRES   REMARKS
CONCORDIA      CLOUDY    61  55  81 S5        29.93R
6HR MIN TEMP:  60; 6HR MAX TEMP:  71; 6HR PCP: TRACE;

EMPORIA        MOCLDY    61  55  81 S12       29.97R
6HR MIN TEMP:  61; 6HR MAX TEMP:  66;

LAWRENCE       CLOUDY    58  54  86 E3        29.99R
6HR MIN TEMP:  58; 6HR MAX TEMP:  69;

MANHATTAN      CLOUDY    62  56  80 CALM      29.94R
6HR MIN TEMP:  62; 6HR MAX TEMP:  70; 6HR PCP: TRACE;

OLATHE IND     CLOUDY    64  56  75 SW10      30.01R
6HR MIN TEMP:  64; 6HR MAX TEMP:  68; 6HR PCP: TRACE;

OLATHE EXE     CLOUDY    62  56  80 CALM      30.01R
6HR MIN TEMP:  62; 6HR MAX TEMP:  68;

SALINA         CLOUDY    61  55  81 S6        29.94R
6HR MIN TEMP:  60; 6HR MAX TEMP:  70;

TOPEKA BILLARD CLOUDY    65  55  70 S10       29.98R
6HR MIN TEMP:  62; 6HR MAX TEMP:  70;

TOPEKA FORBES  CLOUDY    63  57  81 S7        29.98R
6HR MIN TEMP:  62; 6HR MAX TEMP:  70; 6HR PCP: TRACE;

$$


USA.gov is the U.S. government's official web portal to all federal, state and local government web resources and services.